[[{"header":{"parameterUnit":"m.s-1","parameterCategory":1,"la1":30.2991,"la2":30.254,"lo1":-89.0895,"lo2":-89.0444,"dy":0.0017,"dx":0.0017,"nx":28,"ny":28,"refTime":"2023-11-03T09:00:00:Z","depth":0,"parameterNumber":2,"parameterNumberName":"U-component_of_WINDS"},"data":[0,0,0,0,0,0,0,0,0,0,0,0,0,0,0,0,0,0,0,0,0,0,0,0,0,0,0,0,0,0,0,0,0,0,0,0,0,0,0,0,0,0,0,0,0,0,0,0,0,0,0,0,0,0,0,0,0,0,-3.4229,-3.4229,0,-3.4294,-3.4294,-3.4295,-3.4122,-3.4117,-3.4111,-3.4106,-3.418,-3.4187,-3.4194,0,0,0,0,0,0,0,0,0,0,0,0,0,-3.3961,-3.3967,-3.4228,-3.4229,-3.423,-3.4294,-3.4294,-3.4295,-3.4123,-3.4116,-3.411,-3.4104,-3.4178,-3.4186,-3.4195,0,0,0,0,0,0,0,0,0,0,0,0,0,-3.4057,-3.3968,-3.4228,-3.4151,-3.4145,-3.4293,-3.4294,-3.4296,-3.4124,-3.4116,-3.4108,-3.41,-3.4175,-3.4185,-3.4196,-3.4423,0,0,-3.4228,-3.4233,0,0,0,0,0,0,0,0,-3.4052,-3.4067,-3.4162,-3.4157,-3.415,-3.4191,-3.4227,-3.4339,-3.4126,-3.4133,-3.4106,-3.4096,-3.4191,-3.42,-3.423,-3.4427,-3.443,-3.4229,-3.4235,-3.424,-3.4243,0,0,0,0,0,0,0,-3.4045,-3.4063,-3.4254,-3.4164,-3.4157,-3.4116,-3.412,-3.4247,-3.4207,-3.4131,-3.4119,-3.4129,-3.4186,-3.422,-3.423,-3.4431,-3.4229,-3.4238,-3.4244,-3.4249,-3.4819,-3.4828,0,0,0,0,0,0,-3.4048,-3.4059,-3.4252,-3.4256,-3.408,-3.4127,-3.4132,-3.4186,-3.4205,-3.42,-3.4135,-3.412,-3.4206,-3.4218,-3.4232,-3.4501,-3.424,-3.425,-3.4256,-3.4811,-3.4821,-3.4831,0,0,0,0,0,0,-3.4042,-3.4066,-3.425,-3.4154,-3.4174,-3.414,-3.4203,-3.4192,-3.4226,-3.4208,-3.42,-3.4177,-3.42,-3.4218,-3.4377,-3.4501,-3.4254,-3.4264,-3.48,-3.4814,-3.4826,-3.504,0,0,0,0,0,0,-3.4036,-3.4066,-3.415,-3.4157,-3.418,-3.4392,-3.421,-3.4199,-3.4243,-3.4224,-3.4245,-3.4241,-3.4195,-3.4362,-3.4387,-3.4511,-3.4272,-3.4789,-3.4806,-3.4822,-3.5022,-3.5059,-3.5091,0,0,0,0,0,-3.4027,-3.421,-3.4156,-3.418,-3.4285,-3.4399,-3.4413,-3.4354,-3.4254,-3.434,-3.4329,-3.424,-3.4483,-3.438,-3.4407,-3.4536,-3.4781,-3.4801,-3.4821,-3.5006,-3.5052,-3.509,0,0,0,0,0,0,-3.4221,-3.4209,-3.4149,-3.4339,-3.4371,-3.437,-3.4476,-3.4404,-3.4467,-3.4447,-3.4374,-3.438,-3.4554,-3.456,-3.4445,-3.4757,-3.4615,-3.4641,-3.4747,-3.479,-3.4824,-3.482,-3.4281,0,0,0,0,0,-3.4285,-3.4377,-3.4362,-3.4532,-3.4551,-3.4511,-3.4559,-3.4511,-3.4542,-3.4556,-3.4555,-3.4592,-3.4675,-3.4733,-3.4809,-3.5021,-3.5024,-3.5123,-3.5158,-3.5186,-3.521,-3.5324,-3.5368,-3.4896,-3.4896,-3.4896,0,0,-3.442,-3.4425,-3.4488,-3.4571,-3.459,-3.4689,-3.4524,-3.4635,-3.4708,-3.4573,-3.4723,-3.4725,-3.476,-3.4947,-3.5029,-3.4958,-3.5341,-3.5211,-3.5234,-3.5243,-3.5349,-3.5394,-3.5434,-3.491,-3.4907,-3.4905,0,0,-3.4717,-3.4729,-3.4872,-3.4894,-3.4924,-3.4897,-3.4931,-3.4941,-3.4936,-3.5085,-3.4985,-3.5072,-3.5218,-3.5248,-3.5282,-3.559,-3.5512,-3.5617,-3.5798,-3.591,-3.5947,-3.598,-3.6091,-3.6132,-3.564,-3.5641,-3.5641,0,-3.4882,-3.5025,-3.4955,-3.5073,-3.5113,-3.4992,-3.5138,-3.5163,-3.5219,-3.525,-3.5168,-3.5349,-3.5364,-3.5557,-3.5632,-3.5663,-3.5702,-3.5615,-3.5947,-3.5979,-3.6008,-3.6114,-3.6156,-3.5654,-3.5652,-3.5651,-3.565,0,-3.5227,-3.5327,-3.5439,-3.5493,-3.5545,-3.5677,-3.5629,-3.5691,-3.5639,-3.5621,-3.5775,-3.5788,-3.5865,-3.5907,-3.5858,-3.6094,-3.6049,-3.5958,-3.5814,-3.6067,-3.6165,-3.6205,-3.5672,-3.5667,-3.5664,-3.566,0,0,-3.5649,-3.5661,-3.5704,-3.5727,-3.5751,-3.5829,-3.5955,-3.6028,-3.6084,-3.6126,-3.6232,-3.6358,-3.6274,-3.6313,-3.6266,-3.6364,-3.6609,-3.6261,-3.6261,-3.6327,-3.6872,-3.6941,-3.6989,-3.6556,-3.6563,-3.6569,-3.6869,0,-3.5943,-3.6157,-3.6098,-3.6314,-3.6407,-3.6293,-3.6403,-3.6432,-3.6418,-3.6497,-3.6482,-3.6574,-3.6455,-3.6478,-3.657,-3.656,-3.6718,-3.6537,-3.6657,-3.6662,-3.6653,-3.7039,-3.7113,-3.7395,-3.6907,-3.6913,-3.6918,0,-3.6314,-3.6369,-3.6593,-3.6602,-3.6639,-3.6739,-3.6801,-3.6877,-3.6907,-3.6891,-3.6934,-3.6867,-3.6994,-3.6848,-3.7023,-3.6901,-3.6946,-3.6949,-3.6959,-3.6969,-3.6807,-3.7062,-3.7483,-3.7527,-3.6977,-3.6973,-3.6968,0,-3.6602,-3.6731,-3.6882,-3.6905,-3.6919,-3.6992,-3.7002,-3.7024,-3.7072,-3.7127,-3.7158,-3.7229,-3.7268,-3.7325,-3.728,-3.7177,-3.7464,-3.7313,-3.7456,-3.7457,-3.7523,-3.752,-3.7959,-3.755,-3.7549,-3.7548,-3.7547,0,-3.6937,-3.708,-3.7011,-3.7105,-3.7261,-3.7192,-3.735,-3.7347,-3.7367,-3.7459,-3.7366,-3.7455,-3.7389,-3.7473,-3.7439,-3.759,-3.7608,-3.76,-3.759,-3.7609,-3.7611,-3.764,-3.762,-3.7559,-3.7557,-3.7555,-3.7553,0,-3.7286,-3.7245,-3.7403,-3.7402,-3.7405,-3.7521,-3.7522,-3.7609,-3.7588,-3.7706,-3.773,-3.7698,-3.7792,-3.7752,-3.7852,-3.7829,-3.8024,-3.7986,-3.8013,-3.8004,-3.815,-3.8137,-3.8624,-3.8686,-3.8235,-3.824,-3.8243,0,-3.7503,-3.7609,-3.762,-3.7674,-3.7689,-3.7777,-3.7825,-3.7762,-3.7817,-3.7859,-3.7942,-3.8027,-3.8092,-3.8249,-3.8236,-3.8312,-3.8277,-3.8443,-3.8289,-3.8305,-3.8282,-3.8277,-3.8288,-3.8475,-3.848,-3.8484,-3.8488,0,-3.7894,-3.7868,-3.7939,-3.8005,-3.8064,-3.8113,-3.8154,-3.8204,-3.8143,-3.8209,-3.8303,-3.8353,-3.8454,-3.8541,-3.8609,-3.862,-3.8546,-3.8536,-3.8573,-3.8596,-3.8607,-3.8605,-3.8099,-3.8526,-3.8522,-3.8519,-3.8517,-3.8515,-3.8184,-3.8273,-3.8295,-3.8378,-3.8401,-3.8442,-3.8524,-3.8512,-3.8589,-3.8664,-3.8623,-3.8733,-3.8762,-3.8844,-3.8866,-3.8953,-3.8888,-3.8942,-3.8956,-3.8971,-3.8991,-3.8592,-3.8965,-3.8964,-3.8963,-3.8962,-3.8961,0,-3.8571,-3.8578,-3.8655,-3.8715,-3.8781,-3.8701,-3.8742,-3.8804,-3.8901,-3.8932,-3.8998,-3.9106,-3.919,-3.9184,-3.9261,-3.9332,-3.93,-3.9355,-3.935,-3.9355,-3.9043,-3.9004,-3.938,-3.938,-3.938,-3.938,-3.938,-3.938,-3.878,-3.8927,-3.8905,-3.9064,-3.907,-3.9176,-3.9207,-3.9244,-3.9269,-3.9394,-3.9462,-3.9456,-3.9473,-3.9551,-3.9626,-3.9622,-3.9656,-3.9724,-3.9708,-3.9418,-3.9376,-3.9337,-3.9299,-3.9732,-3.9732,-4.0012,-4.0015,-4.0017]},{"header":{"parameterUnit":"m.s-1","parameterCategory":1,"la1":30.2991,"la2":30.254,"lo1":-89.0895,"lo2":-89.0444,"dy":0.0017,"dx":0.0017,"nx":28,"ny":28,"refTime":"2023-11-03T09:00:00:Z","depth":0,"parameterNumber":3,"parameterNumberName":"V-component_of_WINDS"},"data":[0,0,0,0,0,0,0,0,0,0,0,0,0,0,0,0,0,0,0,0,0,0,0,0,0,0,0,0,0,0,0,0,0,0,0,0,0,0,0,0,0,0,0,0,0,0,0,0,0,0,0,0,0,0,0,0,0,0,-1.5873,-1.5874,0,-1.5952,-1.5953,-1.5954,-1.5996,-1.5997,-1.5997,-1.5997,-1.6072,-1.6074,-1.6076,0,0,0,0,0,0,0,0,0,0,0,0,0,-1.5754,-1.5756,-1.5873,-1.5874,-1.5875,-1.5952,-1.5953,-1.5954,-1.5996,-1.5997,-1.5997,-1.5997,-1.6071,-1.6074,-1.6076,0,0,0,0,0,0,0,0,0,0,0,0,0,-1.5817,-1.5757,-1.5873,-1.5906,-1.5909,-1.5952,-1.5953,-1.5954,-1.5996,-1.5997,-1.5997,-1.5997,-1.6071,-1.6073,-1.6076,-1.609,0,0,-1.6085,-1.6086,0,0,0,0,0,0,0,0,-1.5813,-1.5821,-1.59,-1.5903,-1.5908,-1.5965,-1.5939,-1.6,-1.5996,-1.5963,-1.5997,-1.5997,-1.6036,-1.6042,-1.6056,-1.6094,-1.6097,-1.6085,-1.6087,-1.6088,-1.6089,0,0,0,0,0,0,0,-1.5809,-1.5818,-1.5904,-1.5901,-1.5906,-1.5915,-1.5924,-1.595,-1.5997,-1.5966,-1.5969,-1.5978,-1.6038,-1.6053,-1.6058,-1.6098,-1.6085,-1.6088,-1.6089,-1.6091,-1.6152,-1.6152,0,0,0,0,0,0,-1.58,-1.5814,-1.5902,-1.5907,-1.586,-1.5917,-1.5927,-1.5946,-1.5997,-1.6005,-1.5978,-1.598,-1.6048,-1.6055,-1.6061,-1.6081,-1.6088,-1.6091,-1.6092,-1.6152,-1.6152,-1.6152,0,0,0,0,0,0,-1.5797,-1.5807,-1.5899,-1.5861,-1.5874,-1.5919,-1.594,-1.5948,-1.5963,-1.6007,-1.6015,-1.5985,-1.6048,-1.6057,-1.6083,-1.6084,-1.6092,-1.6095,-1.6152,-1.6152,-1.6152,-1.6121,0,0,0,0,0,0,-1.5793,-1.5806,-1.5813,-1.5861,-1.5875,-1.5921,-1.594,-1.5949,-1.5968,-1.5971,-1.6015,-1.6023,-1.6049,-1.6079,-1.6086,-1.6088,-1.6097,-1.6152,-1.6152,-1.6152,-1.6122,-1.612,-1.6118,0,0,0,0,0,-1.5789,-1.58,-1.5813,-1.5824,-1.5885,-1.5921,-1.5929,-1.5961,-1.5968,-1.5975,-1.6003,-1.6021,-1.6083,-1.6081,-1.609,-1.6093,-1.6152,-1.6152,-1.6152,-1.6123,-1.6121,-1.6118,0,0,0,0,0,0,-1.5749,-1.5807,-1.5822,-1.5849,-1.588,-1.5928,-1.5938,-1.5957,-1.5985,-1.5987,-1.6023,-1.6033,-1.6056,-1.6077,-1.6074,-1.6109,-1.6119,-1.6121,-1.6095,-1.6092,-1.609,-1.6085,-1.6099,0,0,0,0,0,-1.5743,-1.5769,-1.5818,-1.5837,-1.5852,-1.5892,-1.5909,-1.5931,-1.5964,-1.5976,-1.6006,-1.6036,-1.6062,-1.6078,-1.6105,-1.6126,-1.6135,-1.6132,-1.613,-1.6128,-1.6129,-1.6141,-1.614,-1.6151,-1.6151,-1.6151,0,0,-1.5732,-1.5767,-1.578,-1.583,-1.5856,-1.5881,-1.5903,-1.5928,-1.5946,-1.598,-1.6007,-1.603,-1.6065,-1.6089,-1.6101,-1.6107,-1.6128,-1.6128,-1.6126,-1.6128,-1.6141,-1.614,-1.6139,-1.6151,-1.6151,-1.6151,0,0,-1.5724,-1.5753,-1.5772,-1.5799,-1.584,-1.5866,-1.5871,-1.5916,-1.5934,-1.5962,-1.5988,-1.6009,-1.6053,-1.6078,-1.6096,-1.6097,-1.6115,-1.6104,-1.6093,-1.6105,-1.6104,-1.6104,-1.6104,-1.6104,-1.6105,-1.6105,-1.6105,0,-1.5703,-1.5743,-1.5779,-1.5803,-1.5824,-1.5858,-1.5877,-1.59,-1.5946,-1.5959,-1.5966,-1.6023,-1.6049,-1.6079,-1.6079,-1.6093,-1.6098,-1.61,-1.6102,-1.6102,-1.6101,-1.6102,-1.6102,-1.6104,-1.6104,-1.6104,-1.6104,0,-1.5717,-1.5744,-1.5754,-1.5801,-1.5822,-1.5843,-1.5881,-1.5898,-1.5919,-1.5944,-1.5972,-1.6005,-1.6039,-1.6047,-1.6066,-1.608,-1.6083,-1.6095,-1.6106,-1.6098,-1.61,-1.61,-1.6101,-1.6102,-1.6102,-1.6103,0,0,-1.5685,-1.5752,-1.5755,-1.5776,-1.5824,-1.5845,-1.5867,-1.5902,-1.5916,-1.5946,-1.5965,-1.6002,-1.6015,-1.6035,-1.6057,-1.6067,-1.6066,-1.6079,-1.608,-1.6075,-1.6083,-1.6073,-1.6073,-1.6078,-1.6079,-1.6079,-1.608,0,-1.5683,-1.5727,-1.576,-1.5791,-1.5816,-1.5849,-1.5868,-1.5898,-1.5923,-1.5946,-1.5972,-1.5998,-1.6012,-1.6025,-1.6036,-1.6064,-1.6068,-1.6064,-1.6095,-1.6096,-1.6086,-1.6074,-1.6064,-1.6063,-1.6081,-1.6081,-1.6081,0,-1.5687,-1.5719,-1.5753,-1.5798,-1.581,-1.5827,-1.5862,-1.5885,-1.5919,-1.5936,-1.5959,-1.5983,-1.6006,-1.6015,-1.6048,-1.6044,-1.6059,-1.6074,-1.6075,-1.6079,-1.6088,-1.6077,-1.6064,-1.6064,-1.6082,-1.6082,-1.6082,0,-1.5661,-1.5712,-1.5739,-1.5756,-1.581,-1.5821,-1.5843,-1.5878,-1.5897,-1.5927,-1.594,-1.5971,-1.5988,-1.6011,-1.6041,-1.6045,-1.607,-1.6082,-1.6084,-1.6083,-1.6088,-1.6087,-1.6076,-1.6097,-1.6097,-1.6097,-1.6097,0,-1.5656,-1.5675,-1.5728,-1.5744,-1.5766,-1.5804,-1.5824,-1.5849,-1.588,-1.5901,-1.593,-1.5948,-1.5988,-1.601,-1.6034,-1.6057,-1.6064,-1.6078,-1.6084,-1.6075,-1.6074,-1.6085,-1.6086,-1.6097,-1.6097,-1.6097,-1.6097,0,-1.5629,-1.5666,-1.5697,-1.5746,-1.5759,-1.5773,-1.5814,-1.583,-1.5857,-1.5883,-1.5891,-1.5931,-1.596,-1.5993,-1.6031,-1.6047,-1.6068,-1.6077,-1.6057,-1.6061,-1.6061,-1.606,-1.6057,-1.6059,-1.6078,-1.6078,-1.6078,0,-1.5624,-1.564,-1.5691,-1.5708,-1.573,-1.5757,-1.5777,-1.5814,-1.5833,-1.5874,-1.5885,-1.5917,-1.5944,-1.5987,-1.6019,-1.6048,-1.6058,-1.6055,-1.6063,-1.6054,-1.6058,-1.6057,-1.6058,-1.6053,-1.6052,-1.6052,-1.6052,0,-1.5609,-1.5627,-1.5656,-1.5691,-1.5715,-1.5744,-1.5774,-1.5786,-1.5828,-1.5848,-1.5879,-1.59,-1.594,-1.597,-1.6004,-1.6026,-1.6045,-1.605,-1.6052,-1.6043,-1.6031,-1.6037,-1.6051,-1.6049,-1.6049,-1.605,-1.605,-1.605,-1.5593,-1.5609,-1.5648,-1.5679,-1.5706,-1.5734,-1.5752,-1.5781,-1.5808,-1.5845,-1.5865,-1.5895,-1.5929,-1.5977,-1.5997,-1.602,-1.6027,-1.603,-1.6031,-1.6031,-1.6028,-1.6027,-1.6027,-1.6027,-1.6027,-1.6027,-1.6027,0,-1.5581,-1.5608,-1.5636,-1.5678,-1.5703,-1.5722,-1.5756,-1.5774,-1.5801,-1.5832,-1.5858,-1.5893,-1.5923,-1.5957,-1.5989,-1.6,-1.601,-1.6007,-1.6007,-1.6011,-1.6021,-1.6016,-1.5999,-1.5999,-1.5999,-1.5999,-1.5999,-1.5999,-1.5577,-1.5605,-1.5627,-1.5668,-1.5695,-1.5726,-1.5744,-1.5769,-1.5794,-1.5833,-1.5858,-1.5881,-1.5913,-1.5947,-1.5975,-1.5984,-1.5994,-1.5989,-1.6,-1.6008,-1.6011,-1.6013,-1.6009,-1.599,-1.599,-1.5989,-1.5989,-1.5989]}]]